Theta_e
303 306 305 306 306 308 308 307 308 308 307 309 311 311 311 309 311 311 305 309 309 309 311 312 313 314 316 316 319 320 320 321 321 321 320 319 319 318 317 318 318 318 317 317 317 318 318 318 317 314 310 309 309 308 307 307 304 305 305 303 303 301 300 297 296 292 285 285 287 287 287 286 284 284 283 283 284 284 285 283 283 283 282 282 282
301 302 301 303 303 304 303 301 305 304 306 305 307 306 305 305 305 301 304 307 305 310 309 310 310 312 314 315 317 318 319 320 319 318 317 315 314 316 316 316 316 315 312 313 311 312 313 313 312 311 307 308 305 303 303 302 301 302 299 299 301 298 293 295 292 292 289 286 286 284 284 285 285 282 284 283 283 283 284 284 283 282 282 283 283
298 298 299 300 300 299 299 301 302 301 303 301 302 301 300 298 299 303 302 300 299 305 306 307 310 312 313 314 316 316 317 317 318 317 316 315 313 311 311 312 314 314 314 314 313 312 310 309 309 304 301 303 302 302 299 299 298 299 300 295 294 292 290 293 292 289 288 286 285 284 283 283 284 283 282 283 284 284 284 283 283 284 284 283 283
296 297 297 298 297 295 298 295 296 298 301 299 299 295 296 297 295 298 299 298 299 300 302 307 308 310 311 311 311 312 313 312 308 308 313 312 312 314 313 311 310 311 311 310 309 307 307 307 306 305 302 303 302 298 296 295 297 297 293 291 290 290 289 288 290 290 287 286 284 284 283 283 281 280 283 283 283 284 284 284 283 283 282 282 282
295 295 295 295 291 294 293 292 297 296 299 296 296 293 295 295 295 299 298 298 301 300 300 302 304 306 309 310 311 309 309 309 310 308 308 309 311 312 312 311 310 310 310 310 304 308 308 308 308 301 298 301 298 296 295 295 294 292 292 290 290 290 289 289 288 287 287 287 285 283 282 281 279 280 282 283 282 282 282 282 282 282 281 280 281
293 293 291 295 294 293 294 291 296 297 297 296 296 295 295 296 297 296 298 305 299 299 302 300 302 304 303 305 304 305 305 304 304 304 305 305 304 305 306 307 308 308 308 307 306 305 306 306 302 299 299 299 297 298 296 295 293 293 293 291 291 290 290 288 287 287 288 287 285 283 280 282 280 279 281 282 283 282 281 281 281 281 280 279 279
291 293 291 294 294 295 293 294 294 293 293 294 293 294 294 292 295 297 294 297 298 298 297 299 297 300 302 302 302 302 303 302 303 302 303 303 304 303 303 303 304 303 303 303 303 303 303 302 300 299 299 299 299 297 296 294 295 294 293 292 289 288 287 287 286 286 286 285 284 284 282 280 280 281 280 282 283 283 282 281 280 280 279 279 278
293 294 293 295 295 296 295 294 294 294 294 294 295 295 295 295 296 295 293 296 296 296 297 298 296 295 297 298 298 298 299 299 299 299 300 300 300 300 300 300 299 299 297 297 298 299 300 300 300 300 300 300 300 298 296 296 294 293 291 290 289 288 288 287 286 286 285 284 284 282 280 280 279 278 279 280 281 281 282 282 281 279 278 277 277
295 296 296 296 296 296 294 293 294 295 294 295 295 296 296 296 295 293 292 294 293 293 294 295 295 296 294 294 295 295 297 298 298 298 298 299 298 299 299 299 298 297 296 295 295 296 297 298 298 298 297 294 294 293 293 294 295 294 290 290 288 288 287 286 286 285 284 284 282 280 280 279 280 279 279 280 280 282 281 281 281 281 279 277 279
298 298 298 298 296 295 296 295 296 294 295 295 295 293 293 293 293 292 292 292 291 291 292 292 293 294 294 293 293 294 295 297 294 294 296 299 298 298 297 296 295 295 295 294 294 294 294 294 293 291 291 290 291 291 292 292 292 294 292 290 288 288 287 286 285 284 284 282 281 280 280 280 280 281 281 281 281 279 278 280 280 279 278 278 279
298 297 298 297 296 295 296 296 295 295 295 295 293 292 292 291 291 291 291 291 292 290 290 292 292 291 293 293 292 293 294 295 293 296 296 296 296 296 297 295 294 293 293 293 293 291 291 291 291 289 289 289 289 290 291 291 291 291 291 290 290 290 287 286 285 284 282 282 280 279 280 281 280 281 281 281 280 280 280 279 280 278 278 277 277
298 297 296 295 295 296 295 295 294 294 293 293 292 291 290 289 290 290 289 289 289 288 290 292 291 290 290 290 290 291 291 292 294 295 295 295 295 295 294 294 293 292 291 291 290 290 289 289 289 289 288 289 289 289 289 289 290 290 290 290 290 290 291 289 287 283 281 280 278 279 279 280 280 280 280 279 279 279 279 279 279 278 277 277 277
297 296 295 295 295 296 295 294 293 293 292 292 291 290 289 289 289 289 289 289 288 289 290 289 289 288 289 290 289 289 289 291 293 294 294 295 295 294 293 293 291 290 290 290 290 290 289 288 287 287 288 286 287 289 289 288 288 289 289 288 288 289 290 291 291 287 283 280 279 279 279 280 278 279 281 280 280 279 279 279 279 279 279 277 277
296 295 295 295 295 295 294 293 293 292 291 290 289 289 289 290 289 289 288 287 288 288 288 288 288 288 289 289 289 289 289 290 293 293 293 294 295 294 292 291 290 290 290 289 289 288 288 288 288 287 287 286 286 286 286 287 288 287 287 287 287 287 288 288 288 286 283 281 280 280 280 279 280 279 280 282 281 280 279 279 279 278 278 277 277
295 295 294 295 294 294 294 293 292 291 290 290 289 289 289 289 288 288 288 289 289 289 289 288 288 287 287 288 288 289 290 291 292 293 293 294 295 294 290 291 290 289 289 289 288 288 288 288 289 289 286 285 285 284 284 286 286 286 286 286 285 285 283 282 281 281 280 281 279 279 279 279 280 280 281 283 283 283 282 281 280 279 278 277 276
295 294 294 294 294 294 293 293 292 291 290 289 289 289 289 289 289 287 287 287 287 288 288 288 288 287 287 287 288 288 289 291 292 292 293 294 294 290 288 289 288 288 288 288 288 287 287 287 288 288 286 285 285 288 287 284 283 283 283 284 284 282 280 283 285 285 281 280 279 279 279 280 284 282 283 283 282 280 279 278 278 276 274 273 274
293 293 293 293 293 293 293 293 292 291 290 289 289 289 289 288 288 288 288 287 287 287 288 287 287 288 287 288 288 288 288 289 291 292 292 294 292 288 289 287 288 288 288 287 286 286 286 287 287 286 285 284 285 288 289 286 282 281 281 282 281 277 278 278 283 286 286 286 286 286 286 286 287 287 286 286 283 280 278 277 275 275 274 273 274
292 292 292 292 293 293 293 293 292 290 289 289 289 289 289 289 288 288 289 288 288 288 287 287 287 287 287 287 288 288 288 287 290 291 292 293 290 288 288 287 286 287 287 286 286 285 285 285 285 284 284 284 286 288 289 286 284 282 279 280 279 277 277 276 277 278 286 286 286 286 286 287 287 287 287 286 285 282 279 279 277 275 275 275 274
292 291 292 292 292 293 293 292 291 290 289 289 290 289 288 289 288 288 289 289 288 287 287 287 287 287 287 287 287 287 287 287 289 291 291 292 289 288 287 287 287 286 286 285 284 283 282 283 284 285 285 285 287 288 289 286 284 282 279 276 277 277 278 274 275 276 276 277 277 279 280 284 284 283 284 286 285 283 281 280 276 276 275 274 274
293 291 290 290 291 292 292 291 290 290 289 289 289 289 288 288 288 288 287 288 287 287 287 287 287 287 286 286 287 287 287 287 287 290 291 292 291 287 287 287 287 287 286 286 285 284 282 282 284 286 287 287 287 288 289 288 284 282 279 277 275 278 275 274 275 275 275 276 275 276 277 279 280 281 282 283 283 281 280 278 277 277 276 275 273
289 289 289 290 291 291 291 291 290 289 289 289 289 288 288 288 287 287 287 287 287 287 287 286 286 286 286 286 286 286 287 287 286 289 291 291 291 289 287 287 287 287 286 285 285 284 283 282 282 285 287 288 288 288 289 289 287 283 281 280 279 277 278 273 275 281 274 274 274 275 276 276 277 277 278 279 280 280 280 280 277 277 276 275 273
288 288 289 290 290 290 290 290 290 290 289 289 288 288 288 288 287 287 288 287 287 287 286 286 286 286 286 286 286 286 286 286 286 287 290 291 291 290 287 287 287 287 286 285 285 284 284 283 283 284 286 287 288 288 289 289 289 284 282 283 283 284 276 274 274 275 274 274 274 275 276 276 276 276 277 277 278 278 278 279 278 276 276 276 275
288 288 289 289 289 289 289 289 289 289 289 289 288 288 287 287 287 287 287 287 287 286 286 286 286 286 285 286 286 286 286 286 286 286 287 290 290 291 290 288 289 286 286 286 285 285 284 283 283 284 286 287 288 288 288 289 288 286 286 285 285 285 282 274 275 274 274 274 274 275 275 275 275 276 276 276 276 277 277 276 276 276 275 275 275
287 287 288 288 288 288 289 289 289 289 289 288 288 288 287 287 287 287 287 287 287 286 286 286 286 286 285 285 285 285 285 286 285 285 286 288 290 290 291 290 289 286 286 286 286 284 284 283 283 285 286 286 287 288 288 288 287 288 288 287 286 285 278 275 274 274 274 273 273 274 274 275 275 275 276 276 276 276 276 276 275 274 273 273 274
287 287 287 288 288 288 288 289 289 288 288 288 288 288 287 287 287 287 287 287 287 287 286 286 286 286 286 286 285 285 285 285 285 285 285 286 289 290 290 290 290 289 286 285 284 284 285 286 286 286 286 286 287 287 288 287 288 288 288 287 285 282 278 276 275 273 273 273 273 274 275 276 277 277 277 276 275 274 273 273 273 273 273 273 273
287 287 287 287 288 288 288 288 288 288 288 288 289 289 288 287 288 287 287 287 287 287 286 286 286 286 287 286 286 285 285 285 285 284 284 284 285 287 288 288 287 287 286 286 284 285 286 286 286 286 285 285 283 281 281 282 286 286 286 285 283 281 278 276 274 274 274 275 274 274 276 276 276 276 276 275 273 273 273 272 272 271 271 271 270
287 287 287 287 288 288 288 288 288 288 288 288 288 288 288 288 288 287 287 287 287 287 287 286 286 286 286 286 285 285 284 283 282 279 277 277 276 277 278 279 284 285 281 278 281 279 281 281 280 284 282 284 283 282 282 282 280 278 279 279 278 277 276 276 276 276 275 275 275 276 276 276 275 274 273 273 272 273 273 272 271 271 271 270 269
287 287 287 287 288 288 288 286 287 288 288 288 288 288 288 288 288 288 288 288 287 287 287 287 287 286 286 286 285 284 283 280 276 274 273 274 273 271 272 274 274 274 275 272 271 273 274 280 279 275 274 274 274 274 273 273 275 276 275 276 277 276 277 278 278 274 275 276 277 275 274 274 273 273 273 272 272 272 272 271 271 270 271 269 269
286 287 287 287 287 288 288 287 288 288 288 288 288 288 288 288 288 288 287 288 288 288 287 287 287 287 287 286 284 283 280 277 279 281 278 281 278 274 272 274 272 271 278 280 273 272 273 272 272 272 271 274 274 272 271 271 272 271 272 273 275 277 278 278 277 277 276 275 275 275 274 272 273 273 272 272 272 271 272 270 271 270 270 270 268
286 286 287 287 287 287 288 287 288 288 288 288 287 286 284 287 287 288 287 286 287 287 288 286 286 285 285 282 282 282 281 279 281 284 284 284 285 284 282 282 281 276 281 284 277 270 269 270 269 270 271 270 271 271 271 271 271 271 271 276 274 274 277 277 278 278 277 276 275 275 274 273 272 272 272 271 271 271 271 271 269 271 268 269 268
286 287 286 287 287 287 287 287 287 287 287 287 287 286 284 283 285 286 286 285 285 286 286 285 285 284 282 276 275 282 281 282 285 284 285 286 286 286 286 285 285 284 285 279 272 271 269 270 270 269 270 269 270 270 270 270 271 271 271 271 271 274 276 277 277 277 276 276 275 274 274 273 273 272 271 271 271 271 270 271 270 270 269 269 269
286 286 286 286 286 286 287 287 286 286 287 287 286 285 284 282 281 283 284 284 285 284 284 284 284 284 283 280 275 274 281 284 284 284 285 285 285 286 287 286 286 286 285 283 272 269 269 269 268 268 268 269 271 271 270 270 271 271 270 270 271 272 274 275 276 274 275 275 274 274 273 272 272 272 271 270 270 269 269 268 269 268 268 269 268
286 286 286 285 285 285 285 285 285 286 286 285 285 285 284 283 280 278 280 283 284 283 284 284 284 284 284 283 283 280 281 283 284 284 284 284 284 285 286 287 287 287 286 278 270 269 268 269 268 268 268 270 270 270 270 270 270 271 271 271 271 271 272 273 272 271 272 273 274 274 274 273 272 272 271 270 269 268 268 268 267 268 267 267 267
285 285 285 284 284 284 284 284 285 285 285 285 285 284 284 283 281 279 277 276 277 280 283 283 283 283 283 283 283 283 283 283 284 284 283 283 285 285 285 281 286 286 283 276 273 272 270 270 269 269 269 270 270 270 270 270 270 270 270 271 272 271 271 268 269 271 269 271 272 272 271 271 271 270 270 270 269 269 268 268 267 266 266 267 267
282 280 279 280 283 283 283 283 284 284 283 283 282 282 281 279 278 277 277 276 276 275 275 275 280 282 279 281 283 283 283 283 283 283 283 283 284 284 284 275 273 272 273 273 275 274 272 271 269 270 270 271 271 270 270 269 270 270 271 271 270 269 269 269 270 270 270 269 269 270 271 271 271 270 270 270 269 269 269 269 268 268 268 268 268
280 281 281 280 281 282 282 282 283 282 281 280 280 279 278 277 276 275 275 275 275 274 273 271 272 280 281 281 282 283 283 283 283 283 283 283 283 282 271 269 270 269 269 269 269 271 272 272 271 271 270 270 270 269 270 271 271 271 271 272 273 273 273 272 272 272 272 272 271 271 272 271 271 271 270 270 270 269 270 269 269 269 269 269 269
279 279 280 280 280 280 280 280 280 279 278 277 276 276 275 275 274 274 274 274 274 273 273 271 272 274 275 274 277 281 282 282 283 283 283 283 283 274 269 269 269 268 269 268 268 269 269 269 269 269 269 270 270 270 270 271 272 272 274 274 275 274 274 274 274 273 273 272 272 272 271 271 271 271 270 269 270 270 270 270 270 270 270 270 270
278 278 278 278 277 277 278 278 277 276 276 275 275 275 274 274 274 274 274 273 273 273 272 272 274 273 273 269 274 272 274 278 277 276 277 276 272 269 269 269 269 269 268 268 269 268 269 269 269 270 271 272 273 274 274 275 276 276 276 276 276 275 276 275 274 274 274 273 273 272 271 271 271 271 270 270 269 269 270 270 270 269 269 270 270
276 276 276 276 277 276 277 276 276 276 275 274 274 274 274 273 273 273 272 272 271 271 270 271 271 270 269 267 267 270 272 268 267 267 267 267 267 268 269 270 270 269 269 268 270 271 271 273 274 275 275 276 276 276 276 276 277 277 277 277 276 276 275 275 275 275 274 274 273 273 272 272 271 271 271 270 269 270 270 270 270 269 269 269 269
275 276 276 276 276 276 275 275 275 275 274 274 274 274 273 273 273 272 272 271 270 270 270 270 269 268 266 266 267 268 269 267 267 266 267 267 267 267 268 269 269 268 268 268 268 270 271 272 273 273 273 273 273 273 274 274 274 275 275 275 275 275 275 275 275 274 274 274 273 273 272 272 271 271 270 270 270 270 270 269 269 270 269 269 269
275 275 274 276 275 275 274 274 274 274 273 273 273 273 273 273 272 271 271 270 270 269 268 268 267 265 267 271 274 272 269 268 267 267 267 267 266 267 267 266 267 267 267 267 267 267 267 267 266 266 266 266 267 267 268 268 269 270 272 273 274 274 274 274 274 274 274 274 273 273 272 272 271 271 270 270 271 271 270 270 269 269 269 269 269
274 274 274 274 274 274 273 273 273 273 272 272 273 273 272 271 271 271 270 270 269 269 268 268 266 266 272 275 274 272 269 267 267 268 267 267 267 267 266 265 265 265 264 264 264 265 264 263 263 262 262 263 262 263 264 264 265 266 267 267 268 269 270 271 272 273 273 273 273 273 272 272 271 271 271 271 270 270 270 269 269 269 268 268 268
274 274 273 273 273 274 274 273 272 272 272 272 271 270 271 271 270 270 269 269 269 269 269 269 268 269 271 273 272 271 268 268 268 268 268 268 267 266 265 263 262 262 262 262 261 261 261 261 261 261 261 261 260 261 261 261 262 262 263 263 265 266 267 268 269 270 272 272 272 272 272 272 271 271 271 270 270 269 269 269 268 268 268 267 267
273 272 272 272 272 272 272 272 272 271 271 270 270 270 270 269 269 269 269 269 269 269 268 268 268 268 268 269 270 269 268 267 267 267 267 267 266 265 263 262 262 262 261 261 260 261 261 261 260 259 259 259 259 259 260 260 260 260 261 261 263 265 266 267 268 269 269 269 269 269 270 270 270 270 270 269 269 269 268 268 267 267 267 267 267
272 272 271 271 271 271 271 271 271 271 270 270 270 269 269 269 269 269 269 269 269 268 267 267 267 267 267 268 268 267 267 267 267 266 266 265 265 263 263 262 262 262 261 261 260 259 259 259 259 258 258 258 258 259 258 259 260 259 260 260 259 262 264 265 266 267 267 266 267 267 268 268 269 269 269 269 269 268 267 267 267 266 266 266 266
271 271 270 270 270 269 269 269 270 270 270 270 270 269 269 269 269 269 269 268 268 268 267 267 267 267 267 266 266 266 265 265 265 265 265 264 264 263 262 262 261 261 260 259 260 260 260 259 258 258 258 257 257 257 258 258 259 259 259 259 259 259 260 261 262 263 263 263 264 264 265 266 267 267 268 268 268 268 268 267 267 267 266 265 265
270 270 270 270 269 269 269 269 270 270 270 270 269 269 269 268 268 268 268 268 268 267 267 267 266 266 265 265 265 265 265 265 264 264 264 263 262 262 262 262 262 261 260 260 259 259 259 259 258 258 258 258 258 257 257 258 258 259 259 258 257 258 258 259 260 259 259 260 262 263 264 264 265 265 266 267 267 267 267 266 266 265 265 265 265
270 269 269 269 269 269 269 269 269 268 269 269 269 269 268 268 268 268 267 267 266 266 265 265 265 265 265 264 265 264 264 264 264 263 263 262 262 261 261 261 261 260 260 260 258 259 258 257 257 257 258 258 259 259 259 259 260 260 258 257 257 258 261 261 261 261 261 262 262 263 263 264 264 264 265 265 265 266 266 266 266 265 265 265 265
270 269 269 269 269 269 269 269 269 269 269 268 268 267 267 267 267 266 266 266 266 265 265 264 264 264 264 264 264 263 264 263 262 262 261 261 261 261 261 261 260 260 259 258 257 257 257 256 257 257 257 258 259 259 259 259 259 257 256 256 260 263 264 264 264 264 264 264 263 263 263 264 264 264 264 264 264 265 265 265 265 265 264 264 264
269 269 269 268 268 268 268 268 268 268 267 267 267 266 266 265 265 265 265 264 264 264 264 264 263 263 263 263 263 263 262 262 262 261 261 260 260 260 260 259 258 257 257 257 257 257 256 255 255 256 257 257 257 257 257 257 256 257 257 260 263 264 264 263 263 263 262 260 262 262 263 263 263 263 263 263 263 263 264 264 264 264 264 263 263
267 268 267 267 267 267 267 267 267 266 266 266 266 265 265 265 264 264 264 264 263 263 263 262 262 262 262 262 262 262 261 261 261 260 260 259 259 259 259 258 258 258 257 256 256 255 255 255 255 256 256 257 256 256 255 255 255 258 261 263 263 263 262 262 262 262 263 263 263 263 262 262 262 262 262 262 263 263 263 263 263 263 263 263 263
Wind_Speed
7 8 7 8 7 8 7 6 6 5 6 7 8 8 7 7 7 7 5 6 6 6 7 8 8 8 9 9 10 10 9 9 8 8 7 8 9 9 8 8 9 10 10 10 10 11 12 13 13 11 6 7 9 10 9 9 8 7 7 8 8 8 8 8 8 5 0 1 1 4 5 7 5 5 7 5 5 4 4 4 4 4 4 4 2
8 7 6 6 7 6 6 5 6 6 7 7 7 7 6 6 7 4 6 7 6 7 7 7 6 7 8 8 9 9 9 9 8 8 9 8 5 5 7 9 9 8 6 7 6 7 8 10 10 10 9 10 6 6 8 7 8 8 8 9 11 10 7 9 6 5 8 0 1 2 4 5 7 4 8 8 6 5 6 5 4 4 5 4 3
6 5 6 6 6 6 6 6 7 6 7 6 6 6 5 5 4 6 5 5 4 5 6 6 7 7 7 7 8 8 9 9 9 9 9 9 7 5 6 7 9 9 8 9 9 9 9 9 9 6 5 7 7 7 4 5 4 7 10 8 5 5 6 9 9 9 8 5 2 3 5 6 7 7 5 6 6 7 7 6 6 5 4 4 4
6 6 6 6 6 6 7 6 6 6 7 6 7 5 5 5 3 4 4 3 3 4 4 4 5 6 7 7 7 7 7 7 5 4 5 4 5 7 6 6 7 7 8 7 6 6 8 8 8 8 8 9 7 6 4 4 7 7 5 1 2 3 1 1 1 2 2 6 5 7 6 7 4 3 5 4 7 6 6 5 4 5 4 3 3
5 6 6 7 6 7 6 6 7 7 8 6 6 5 4 4 4 4 3 3 4 3 4 4 4 5 6 7 7 7 6 5 5 4 4 5 6 7 7 6 7 7 8 8 8 8 9 10 9 6 5 8 7 8 8 10 7 5 6 6 7 7 6 6 6 5 7 9 6 3 3 3 1 3 6 8 4 4 3 6 6 5 4 3 3
5 6 5 7 7 7 7 6 8 8 7 5 5 4 4 4 4 3 3 3 3 3 3 3 4 4 4 4 3 3 2 3 3 3 3 2 3 4 4 5 5 6 6 6 5 5 6 7 5 4 5 6 8 8 8 8 6 7 7 6 6 6 7 6 6 7 9 9 9 6 3 6 3 2 6 6 8 7 5 4 3 3 4 3 2
5 6 5 6 7 8 8 8 7 6 5 5 4 3 3 3 3 4 3 3 3 3 3 3 3 3 3 3 3 3 3 2 2 3 3 3 4 4 5 5 5 5 5 5 5 5 6 6 5 6 7 7 7 8 9 8 9 10 9 8 7 8 6 6 7 7 6 6 4 5 8 5 4 6 5 5 5 6 8 6 7 4 3 6 5
6 6 7 7 8 9 7 5 4 4 4 4 4 3 2 1 1 0 1 2 3 3 3 3 2 2 3 3 3 2 2 2 2 3 4 4 4 4 5 5 4 4 4 4 4 5 6 6 7 8 10 10 9 7 8 10 8 8 6 6 7 8 8 7 7 8 9 8 8 7 6 7 5 0 2 4 6 5 8 8 10 7 7 3 4
6 7 7 8 9 6 4 4 4 4 4 4 3 3 3 2 2 3 3 3 3 3 3 2 2 2 2 3 3 2 3 3 3 4 4 5 5 4 5 5 6 6 6 6 5 6 6 7 7 6 6 6 6 7 8 8 8 8 6 7 8 8 7 6 6 6 4 5 5 4 7 7 8 8 8 10 13 13 7 7 6 4 3 3 2
7 8 9 8 4 4 4 4 4 3 3 4 3 3 4 4 5 4 4 4 4 3 3 3 3 3 3 2 1 2 3 3 4 7 6 4 4 5 4 5 5 6 6 6 5 5 4 3 3 4 5 6 8 9 9 9 8 6 8 8 9 8 7 8 8 8 8 9 9 9 9 10 11 12 13 11 7 3 6 7 7 3 2 2 2
8 8 9 5 4 4 5 5 4 5 4 4 4 4 5 4 4 4 4 4 4 4 4 4 4 4 4 4 3 3 3 2 2 4 5 7 4 3 4 4 3 4 4 4 5 4 2 1 2 4 5 5 4 6 7 8 9 9 10 12 12 12 10 10 10 9 10 10 8 8 11 12 11 10 11 7 5 8 6 6 4 4 5 4 6
9 9 6 5 5 6 6 6 6 6 5 5 5 5 4 4 4 5 4 4 3 3 3 4 3 3 3 2 3 3 2 2 3 4 5 5 5 3 3 3 2 3 3 4 3 3 3 3 2 2 3 3 4 4 6 9 10 11 12 13 14 15 14 13 11 8 8 8 8 11 8 11 9 8 6 5 7 5 4 5 5 6 5 5 3
8 7 7 7 8 7 7 7 7 6 6 6 5 5 5 5 5 4 5 4 3 4 4 3 3 3 3 3 3 3 3 2 2 3 4 5 6 3 1 1 2 3 3 3 2 2 2 2 2 1 1 4 5 4 5 5 7 9 9 10 12 14 15 15 11 8 9 10 10 10 12 7 5 7 8 7 4 6 4 5 5 4 3 4 5
9 9 8 9 9 8 8 8 8 7 6 6 5 6 6 6 5 4 3 3 4 4 3 3 3 3 3 4 3 2 2 3 4 5 5 5 5 5 3 2 3 3 4 3 3 3 4 4 5 4 3 3 3 3 3 3 3 4 5 6 7 10 12 12 10 5 5 7 7 9 7 3 6 3 4 5 8 8 8 7 5 6 6 6 1
10 10 11 10 9 9 9 8 7 7 6 6 6 6 6 5 5 4 4 5 5 6 5 4 4 3 3 2 2 2 3 3 4 5 6 6 7 6 3 3 3 3 4 3 4 4 4 5 5 4 3 3 4 4 4 3 3 4 4 6 7 5 4 3 3 3 3 4 4 4 2 3 2 1 4 4 4 3 5 5 6 4 3 3 2
11 9 10 10 10 10 9 9 8 8 8 7 7 7 7 6 6 4 3 3 2 2 2 2 3 3 3 2 2 2 2 3 4 4 5 5 6 3 3 3 4 3 3 2 3 3 4 4 3 3 3 4 4 6 5 3 4 4 6 6 6 4 3 2 2 2 2 2 3 3 1 1 3 3 5 6 6 6 7 7 6 5 5 2 6
11 12 11 11 11 10 10 10 10 9 9 9 9 8 8 6 5 4 5 4 4 4 5 3 3 4 3 3 4 2 1 2 2 3 3 5 5 4 4 3 3 3 3 2 2 2 3 3 3 3 3 5 5 7 7 6 4 6 6 7 5 3 5 2 2 1 2 3 4 3 2 2 4 7 9 11 9 8 7 6 4 5 5 6 6
12 11 12 11 11 11 11 11 11 10 10 10 9 8 6 6 6 6 7 6 5 5 4 3 2 3 3 3 3 3 2 2 2 3 4 7 6 5 4 3 3 3 3 2 2 2 2 4 3 3 3 4 5 7 8 7 5 5 5 6 6 6 6 1 1 1 1 0 0 1 1 3 5 7 10 11 13 10 9 9 7 7 7 7 7
12 13 14 11 10 10 10 11 10 10 11 10 9 9 9 8 6 6 5 6 5 4 4 4 3 2 3 4 5 5 3 3 4 5 7 8 6 4 4 3 3 3 3 2 1 1 1 2 5 6 5 4 7 8 9 8 6 5 5 4 5 7 5 1 1 1 2 2 2 1 0 1 2 2 4 11 12 9 6 4 7 9 9 7 6
16 10 7 10 10 10 10 11 10 11 10 8 8 8 6 6 7 7 5 5 5 5 5 4 5 4 3 4 5 5 5 5 4 7 7 8 9 5 4 4 5 4 3 3 2 1 1 2 4 7 7 6 7 9 10 10 7 4 3 4 5 9 1 2 1 1 1 1 1 0 1 0 0 1 1 4 5 6 5 4 7 8 8 7 7
8 10 9 10 11 11 10 11 12 10 9 9 8 6 7 7 7 7 7 5 6 6 6 5 5 4 4 4 5 5 5 5 5 7 7 7 9 7 4 4 4 3 3 3 2 2 2 3 3 4 7 7 8 10 10 11 8 5 5 7 7 1 4 3 3 6 4 3 3 2 1 0 0 0 2 4 5 5 5 5 5 5 6 6 6
9 9 10 11 10 11 11 9 9 9 9 9 9 8 6 7 7 7 6 6 7 7 6 5 5 5 4 4 5 5 5 7 5 6 7 7 8 9 5 4 3 3 3 2 2 2 2 2 3 4 7 8 8 9 11 11 11 6 7 8 6 5 2 3 4 5 5 5 4 4 4 3 3 4 5 5 5 4 4 5 5 5 5 4 6
8 9 9 10 11 11 11 12 11 9 10 10 10 9 7 7 7 7 7 7 7 8 7 6 6 5 5 4 4 4 4 5 7 5 6 6 6 8 7 4 4 3 4 3 4 4 2 3 4 6 7 9 9 10 11 12 9 7 10 11 10 8 6 5 5 5 5 5 5 5 4 5 6 6 6 7 6 4 5 4 4 4 5 4 2
8 9 10 10 10 10 10 11 10 9 10 10 10 10 9 8 7 7 7 7 7 7 6 7 6 7 7 5 4 4 3 3 5 6 5 6 6 7 7 7 7 5 4 4 4 4 4 4 5 8 8 9 10 11 12 10 7 10 11 11 11 8 5 5 4 5 5 5 5 5 6 6 6 7 8 7 5 5 5 5 4 3 3 4 4
10 10 11 10 11 10 9 10 10 10 10 10 11 10 10 9 9 7 8 7 7 7 7 7 8 7 6 6 5 4 4 4 4 5 7 6 7 7 7 7 8 8 5 4 3 4 4 6 6 8 8 8 10 10 8 9 11 10 9 9 8 5 5 5 5 5 5 6 6 6 7 7 8 7 3 2 2 2 3 3 2 3 3 4 5
11 11 10 10 11 11 12 10 10 9 10 8 9 8 11 10 9 8 8 7 7 8 8 8 7 7 6 5 5 5 5 4 4 4 4 5 5 6 5 6 6 8 7 5 6 6 6 6 6 6 6 5 3 3 3 3 5 7 8 7 4 5 4 5 3 5 7 6 5 7 7 5 4 3 3 3 3 5 3 4 3 5 4 4 3
10 9 11 10 10 11 12 11 10 10 9 8 7 8 8 8 8 8 8 8 8 7 8 8 7 6 7 6 5 5 5 5 5 4 4 5 4 3 3 2 3 4 3 3 3 2 3 3 2 2 2 3 3 2 2 1 1 1 1 1 2 3 4 5 6 6 6 5 6 6 4 3 1 2 2 3 4 4 3 4 4 5 3 3 4
12 12 13 11 10 11 11 12 13 10 10 10 10 9 8 9 9 11 11 10 10 9 8 9 9 9 8 7 6 6 6 5 5 6 6 5 4 3 3 3 4 4 4 2 2 1 2 4 4 3 3 2 1 1 1 1 1 1 1 1 2 2 4 3 2 3 4 4 4 3 2 2 3 4 3 4 5 4 4 5 5 5 4 5 4
10 10 10 10 10 10 10 11 11 10 10 9 7 7 10 10 9 6 3 4 5 6 6 5 5 5 5 6 7 7 6 7 7 6 6 7 6 5 4 5 4 3 4 6 5 3 3 3 2 2 2 1 0 0 1 1 2 1 1 1 1 2 3 4 5 6 6 5 6 5 6 4 4 3 4 4 5 4 3 4 4 5 3 6 10
11 11 11 11 10 11 10 10 10 10 10 10 9 6 4 6 5 7 6 5 6 7 7 6 5 5 6 5 4 7 7 7 5 8 7 7 8 8 6 6 6 5 5 9 6 4 2 2 1 2 1 1 1 1 2 1 2 3 3 2 2 3 4 4 5 5 4 5 5 5 6 4 5 4 4 5 4 3 4 5 6 4 6 8 7
10 10 11 11 13 12 11 10 10 9 9 10 9 9 7 5 4 7 10 8 6 6 7 6 9 9 7 4 2 4 5 6 8 8 8 7 7 7 6 6 7 7 7 7 3 4 3 3 2 1 1 1 2 3 2 2 3 2 4 3 2 4 4 4 5 4 4 5 5 5 5 5 6 4 5 5 5 4 4 4 5 6 7 8 8
12 12 12 10 11 11 10 10 10 10 9 9 9 9 9 9 5 6 6 10 9 8 7 6 6 7 8 9 6 2 6 7 7 7 7 7 6 7 7 7 8 9 10 9 5 4 4 4 3 2 1 1 3 2 2 3 3 3 3 2 4 3 4 6 5 4 4 5 5 5 5 6 6 5 5 5 5 4 5 5 5 6 7 6 8
9 9 9 9 9 10 9 10 10 10 11 11 10 9 10 10 12 9 5 8 10 8 8 8 8 8 8 9 8 7 6 7 7 7 6 6 6 6 6 7 7 9 11 6 5 5 4 4 3 2 2 3 3 3 3 3 3 3 3 3 4 5 5 6 3 4 5 6 5 5 6 5 5 5 5 5 5 6 5 6 5 5 6 6 8
9 10 11 12 11 10 9 9 9 9 8 8 9 10 9 8 8 9 10 8 6 5 5 6 7 9 8 8 9 9 10 9 9 8 7 6 6 6 7 4 8 8 9 6 5 5 5 4 4 3 2 2 2 2 2 3 3 3 3 5 5 5 5 2 3 6 5 6 6 5 5 5 5 5 6 5 5 5 6 6 6 5 7 8 8
6 8 11 10 10 11 10 10 10 10 10 10 10 10 9 8 8 9 9 10 10 9 7 4 5 6 6 7 9 10 10 10 10 9 8 8 8 8 7 5 4 4 4 3 4 5 5 3 3 2 2 3 3 3 4 3 3 3 4 5 4 5 4 4 5 5 6 5 5 5 6 6 5 6 6 6 5 6 7 6 6 7 8 8 8
7 7 8 10 9 9 9 9 9 10 10 9 8 8 8 8 9 8 7 6 8 9 7 5 4 5 8 7 9 10 10 10 10 9 8 8 9 9 5 4 4 2 4 2 3 2 3 3 2 2 2 2 2 2 3 3 4 5 5 4 5 5 5 5 5 6 6 5 6 6 5 5 6 6 5 6 7 8 8 7 7 7 8 8 8
8 8 8 8 8 7 7 7 6 7 7 8 8 8 8 8 7 7 7 8 8 7 8 7 6 6 5 4 6 9 11 11 10 9 8 6 7 6 5 5 5 4 4 1 1 1 1 0 1 1 1 1 2 3 2 3 4 3 4 4 5 5 5 5 6 5 5 5 6 6 6 6 6 6 6 7 7 7 7 7 7 8 8 9 9
8 8 8 9 8 8 9 8 9 10 9 8 8 8 9 8 8 8 8 8 9 9 9 7 6 7 8 4 4 4 8 9 10 9 8 8 7 5 4 4 4 5 3 1 1 1 0 0 0 0 2 1 2 3 2 3 3 3 4 4 4 5 6 6 5 6 6 5 5 5 6 6 6 6 5 7 8 7 7 7 7 7 8 9 7
7 9 12 13 10 10 9 9 10 10 9 9 9 10 9 9 9 8 8 8 8 7 6 6 6 6 6 5 6 5 8 5 6 6 6 5 4 4 5 5 6 5 4 3 2 2 2 1 1 1 1 2 2 3 3 3 3 3 3 3 4 4 4 4 5 4 4 5 5 5 5 6 5 5 6 6 7 7 7 7 7 7 8 8 7
9 8 10 14 9 10 9 9 9 9 9 10 9 9 9 9 9 9 8 8 8 7 7 7 7 6 4 4 5 5 7 6 6 4 5 5 5 5 6 6 6 5 5 5 5 5 5 5 5 4 4 4 4 4 4 4 4 4 4 4 4 4 5 5 5 4 5 4 5 5 5 5 5 5 5 6 6 7 7 7 7 7 7 7 7
7 8 9 9 10 9 8 9 9 9 9 8 9 9 9 9 8 8 8 8 8 8 7 7 7 5 4 6 7 8 7 6 6 6 6 6 5 6 6 6 6 5 5 5 5 5 5 5 4 3 3 3 3 3 3 4 4 4 4 4 4 5 5 5 5 5 5 5 5 5 5 5 5 5 6 6 7 7 7 7 7 7 7 7 7
8 8 8 8 9 9 9 8 8 9 9 9 9 9 9 9 9 8 9 9 8 8 8 7 6 5 8 12 10 9 7 6 6 6 5 5 6 6 5 5 5 5 4 4 4 4 3 3 2 2 3 2 3 3 3 4 4 4 4 4 4 5 5 5 5 6 6 6 6 6 6 5 5 6 7 7 6 6 6 6 6 6 6 6 6
8 7 7 7 8 8 9 8 8 8 8 7 7 6 7 8 8 8 8 8 8 8 8 8 6 6 7 8 9 9 6 6 5 6 5 5 5 5 5 5 4 3 3 3 3 3 4 4 3 3 3 3 3 3 3 3 2 3 3 3 4 4 4 5 5 5 5 6 6 6 6 6 6 5 5 4 5 5 6 6 6 6 6 5 5
9 7 7 7 7 7 7 8 8 7 6 7 7 7 7 7 7 7 8 8 7 7 7 7 7 7 6 6 6 6 6 5 5 5 5 5 5 5 5 4 3 4 4 4 3 4 5 5 4 3 3 3 3 3 3 3 2 3 2 2 3 4 4 4 5 5 6 6 7 7 7 7 6 6 5 5 5 7 7 6 6 5 5 5 6
9 9 8 7 7 8 8 7 7 8 9 8 8 7 8 8 8 7 7 8 8 7 6 6 6 6 6 5 5 6 5 5 5 5 5 5 5 5 4 4 4 4 4 3 2 3 4 4 4 3 3 3 3 3 2 2 2 2 1 1 1 2 3 4 5 5 6 6 6 6 7 7 7 6 6 6 5 6 6 6 6 6 7 6 5
8 9 9 8 8 7 8 8 7 8 8 8 9 8 7 7 7 7 7 7 7 7 6 6 5 5 5 5 5 6 5 6 5 5 6 5 5 5 4 4 4 4 4 3 4 4 4 4 3 3 3 2 2 2 2 2 2 2 1 1 2 2 3 4 4 4 4 4 5 5 7 7 7 6 8 7 6 6 7 7 6 5 5 5 6
7 7 8 8 9 8 8 8 8 8 8 8 8 8 8 7 7 7 7 8 7 7 6 5 6 6 5 5 6 5 5 6 5 5 5 5 5 4 4 4 5 5 4 4 3 4 3 3 3 2 2 1 1 2 2 3 2 3 2 2 2 4 3 3 4 4 4 4 4 4 5 6 6 6 7 7 7 7 7 6 6 7 6 6 6
7 7 7 7 8 8 8 8 8 8 7 7 7 7 7 7 7 7 7 7 7 6 7 8 7 5 5 5 4 5 5 5 4 4 4 5 4 4 4 4 4 4 3 3 2 3 3 2 2 2 1 1 1 1 1 2 2 2 2 3 3 4 6 7 5 4 4 3 3 4 6 6 6 6 6 7 7 7 7 6 6 6 6 6 6
8 8 8 7 7 7 8 8 7 7 8 8 8 8 7 7 7 7 7 7 6 5 5 4 5 5 5 4 3 3 3 4 5 4 5 4 3 3 4 4 3 3 4 2 2 2 2 2 1 1 1 1 1 1 2 2 3 2 3 3 6 10 9 9 6 4 6 5 4 5 5 6 6 6 6 6 7 7 7 7 6 6 5 5 6
7 8 8 8 8 7 6 6 7 7 6 6 7 7 7 8 10 9 8 7 6 7 7 5 5 5 4 3 3 3 3 4 3 4 4 3 3 3 4 3 3 2 2 1 1 1 2 2 1 1 1 1 2 2 2 2 2 3 3 5 9 10 10 10 9 8 6 3 4 5 5 6 6 7 7 7 7 7 8 7 7 6 6 6 6
6 6 6 7 7 7 7 8 9 7 7 8 8 9 10 7 5 6 7 8 7 5 6 6 5 4 5 3 3 4 4 5 4 3 3 3 3 3 3 2 1 1 1 1 1 2 1 1 1 1 1 1 1 2 2 2 2 4 7 10 10 9 9 8 5 6 8 7 5 5 5 5 6 7 7 6 6 6 7 8 7 7 6 6 6
Wind_Direction
191 206 191 205 197 201 199 193 197 192 189 194 199 207 207 207 210 215 203 215 204 206 210 212 211 212 212 212 215 217 219 223 218 216 219 229 223 224 238 243 246 242 226 221 220 224 228 231 229 224 208 204 207 204 199 199 195 204 213 214 212 206 194 201 211 231 333 4 189 182 167 147 177 186 168 170 169 184 185 193 200 203 207 197 190
201 202 199 194 198 200 198 193 189 186 191 194 200 198 200 199 202 186 198 217 195 206 208 209 209 211 213 216 217 218 218 219 216 217 224 226 231 229 235 241 248 249 243 236 223 223 225 228 225 215 203 211 209 205 202 193 187 197 204 202 211 201 197 178 203 196 215 228 155 53 154 174 175 180 177 172 181 175 185 198 214 207 202 194 177
197 189 190 194 200 193 184 191 185 189 190 192 192 193 196 194 178 186 200 210 205 205 207 204 208 211 214 217 217 217 218 219 219 218 219 217 219 230 233 238 243 244 237 234 227 226 228 225 221 196 176 200 202 212 203 207 186 195 213 206 204 200 184 192 181 201 185 201 130 164 188 187 186 186 189 177 174 177 178 197 201 210 211 184 175
185 183 188 193 187 178 188 185 177 183 189 193 193 194 186 189 178 183 186 188 190 217 204 201 207 208 213 219 219 220 221 225 227 221 219 218 234 243 245 236 237 243 243 244 245 234 230 232 229 208 199 204 198 176 170 179 194 208 200 126 149 199 191 352 354 111 142 160 207 192 194 174 210 155 162 163 172 186 191 190 202 195 194 182 164
175 183 176 179 182 180 188 180 183 190 195 189 194 179 189 181 179 174 163 181 209 202 217 199 196 204 213 214 215 215 215 210 213 226 234 233 231 231 235 239 237 238 238 238 236 225 225 225 231 213 194 201 176 172 184 189 186 164 176 184 181 166 162 174 179 156 158 189 185 199 170 173 148 154 167 162 185 187 201 192 197 187 181 174 161
180 170 177 173 186 192 190 187 196 197 194 190 190 181 177 182 179 176 177 195 198 215 209 215 202 205 209 221 226 235 241 239 234 244 257 275 289 281 269 258 249 245 243 242 240 231 229 233 225 193 192 197 201 199 180 183 167 188 190 184 194 184 189 187 174 180 184 192 170 158 200 178 173 177 192 177 169 188 199 213 214 206 173 177 197
179 174 182 188 190 206 202 204 195 190 185 181 167 155 157 160 169 183 178 190 197 218 223 226 246 223 240 230 238 243 258 265 264 265 268 257 244 244 248 246 246 249 247 240 234 227 224 223 206 192 200 203 200 195 192 177 183 197 194 187 175 168 173 184 182 189 195 174 176 177 167 206 177 182 211 196 204 196 193 190 223 208 193 176 211
182 185 185 200 207 210 208 196 189 181 167 158 161 162 168 181 175 160 128 178 206 218 211 202 220 188 226 216 214 201 209 216 229 234 235 241 236 237 233 235 239 244 248 242 225 218 214 211 206 203 203 202 200 199 184 189 186 189 181 163 169 177 191 187 189 189 187 190 186 176 187 168 203 135 95 156 202 246 217 197 210 201 206 185 187
189 190 195 206 214 199 182 184 169 164 164 169 188 205 217 235 247 237 221 224 204 202 197 184 184 202 210 197 215 204 194 221 225 227 230 230 215 222 222 218 214 219 221 217 213 209 208 208 210 210 202 187 166 164 189 186 176 190 188 167 169 180 184 181 197 197 209 198 189 146 166 181 193 169 178 193 200 208 183 180 220 196 157 197 239
189 199 207 214 203 180 179 175 172 165 175 194 203 197 202 205 204 207 211 208 215 210 195 203 195 202 218 245 238 197 208 218 214 217 216 223 219 217 212 213 212 210 212 217 225 224 223 214 215 191 181 176 179 186 188 189 200 198 174 174 173 176 184 192 198 199 195 198 198 175 188 204 192 197 198 208 188 105 141 178 206 177 79 264 298
200 203 215 206 194 182 187 191 176 194 195 183 185 189 194 188 189 202 209 203 202 202 194 206 222 218 212 209 208 216 221 205 236 234 229 226 219 216 216 223 215 215 217 216 225 223 227 200 172 171 178 192 187 175 178 190 197 202 188 192 189 184 187 198 207 194 198 205 192 191 201 205 208 201 210 186 178 184 182 182 178 135 193 197 247
201 208 205 189 191 193 193 187 189 193 181 185 183 189 178 180 188 190 186 191 202 168 188 214 218 213 197 193 207 218 232 239 236 236 236 242 231 229 229 222 211 223 226 226 227 189 195 194 189 160 185 187 177 180 195 203 206 208 204 203 206 209 201 191 197 202 205 202 198 210 200 214 207 194 202 164 193 176 179 166 184 182 187 210 218
198 201 195 192 197 193 188 187 190 188 192 182 182 175 180 187 189 178 195 195 154 174 205 182 204 199 183 192 213 213 223 254 260 259 247 236 224 202 192 203 188 226 228 224 209 198 180 181 174 174 183 174 177 193 193 215 225 224 222 221 223 222 227 231 227 214 189 199 201 209 210 204 202 216 199 190 143 173 153 181 192 193 194 212 221
195 200 195 199 194 190 186 185 188 187 180 177 176 181 183 192 195 192 168 150 173 185 179 193 196 197 198 199 208 209 209 216 211 219 228 224 210 185 176 179 195 198 202 198 191 187 181 185 185 205 205 193 205 201 204 212 213 222 230 230 233 239 240 238 236 229 193 209 204 216 224 180 217 222 184 153 160 181 172 199 171 185 199 208 94
199 200 199 197 188 189 186 185 184 178 178 178 181 186 187 192 187 181 174 177 177 188 188 191 204 200 210 196 185 216 226 220 219 215 209 195 187 171 153 155 168 187 190 184 183 184 189 191 193 197 191 213 214 202 199 207 206 221 230 241 245 251 249 249 239 229 214 225 240 266 318 207 240 115 152 163 165 143 173 179 175 170 120 71 53
205 196 201 196 192 189 182 181 178 177 179 180 184 188 191 185 184 174 160 167 161 142 162 162 184 201 192 168 166 214 265 257 228 219 201 190 161 132 138 153 169 182 191 180 176 179 177 185 190 200 197 217 231 217 203 185 200 219 229 239 248 257 273 359 313 238 216 226 243 254 252 205 182 139 152 154 128 113 94 85 83 98 109 133 234
207 202 204 195 191 185 182 179 180 180 179 181 185 186 184 187 180 163 159 173 173 186 186 180 176 174 172 168 169 188 251 275 236 204 175 159 137 135 144 147 170 187 204 192 191 179 187 189 191 194 195 221 219 209 202 175 200 213 224 235 243 274 266 303 315 284 161 191 216 227 211 198 175 159 160 160 148 135 118 110 156 146 147 217 244
209 202 205 198 190 183 181 180 180 179 181 187 184 183 183 180 177 177 172 170 187 197 180 162 159 162 161 172 169 162 203 272 237 208 185 176 163 160 162 157 181 204 216 203 188 200 214 201 193 192 209 231 207 209 201 181 210 214 216 233 249 261 263 283 349 346 324 105 77 140 173 184 175 172 167 160 153 151 149 197 178 154 200 205 233
205 201 204 190 184 182 178 179 179 178 185 186 179 181 184 182 173 175 177 173 179 167 157 150 156 164 172 169 168 157 176 209 208 202 195 182 167 158 160 164 185 220 208 223 172 193 214 211 210 209 214 206 202 206 199 186 211 205 209 204 245 256 262 131 234 297 342 356 354 22 360 149 146 136 167 165 167 181 200 174 143 177 199 204 204
208 194 172 172 177 176 179 179 179 179 183 178 181 180 170 167 171 171 172 167 159 162 155 154 163 179 171 167 178 174 173 199 204 202 196 187 172 161 164 165 203 212 202 199 189 208 185 211 226 228 224 205 202 209 209 192 203 200 158 198 226 256 225 150 170 155 236 216 279 356 242 11 48 79 165 184 184 194 197 170 182 186 199 195 194
164 178 173 169 171 176 178 183 180 179 175 175 174 170 173 171 165 170 166 163 155 156 160 159 160 175 184 188 182 191 185 180 200 196 196 190 178 167 178 194 200 189 189 194 197 205 203 216 229 226 229 216 206 212 213 206 197 185 191 213 216 191 124 148 187 179 190 192 198 208 231 323 333 346 240 227 213 200 208 207 204 213 205 200 190
172 162 171 174 172 172 178 180 178 174 167 163 171 175 177 166 165 167 165 162 161 161 162 162 165 176 192 194 189 190 189 179 175 195 190 191 186 180 177 208 188 166 171 190 193 220 219 182 209 216 221 223 211 214 216 218 204 191 211 217 210 226 157 169 166 171 176 181 191 209 210 211 228 238 236 242 238 229 215 219 208 214 229 220 201
166 169 165 171 177 177 177 174 173 172 174 171 168 172 168 166 165 164 165 165 164 164 168 168 166 177 187 200 198 193 189 185 174 175 188 185 191 192 195 186 177 163 179 202 203 212 180 184 195 193 208 219 218 216 221 220 215 211 212 210 208 208 162 147 155 167 178 191 198 216 209 210 224 228 230 236 233 232 237 222 220 207 224 226 232
162 166 175 175 174 175 175 174 171 172 173 168 168 164 167 166 161 169 169 167 170 169 175 173 174 180 185 191 196 196 193 179 185 176 171 183 188 194 201 193 174 187 184 207 196 187 190 194 196 194 199 215 220 221 221 218 213 220 214 209 202 198 152 159 158 181 189 200 212 221 223 222 222 231 231 227 224 224 236 237 233 220 206 222 223
169 177 179 177 173 172 167 173 173 173 173 170 168 167 164 165 167 176 170 174 176 177 179 179 184 185 183 185 183 185 181 181 174 182 179 182 186 190 196 195 195 182 191 207 190 190 195 200 200 200 203 209 221 227 230 228 226 223 218 209 198 176 175 181 190 169 196 215 218 223 230 225 224 236 239 208 203 193 223 256 234 227 217 223 228
176 181 175 173 173 165 167 168 171 171 171 177 176 172 168 171 173 171 177 181 182 181 179 184 190 187 188 179 175 175 173 171 174 166 175 175 182 191 192 197 199 199 198 197 195 191 197 207 211 218 220 225 230 227 229 239 239 237 227 213 195 189 184 185 183 192 222 227 220 228 235 237 241 227 198 183 188 228 218 233 216 242 211 236 250
174 171 175 171 166 169 171 173 169 170 171 172 171 169 167 172 171 172 182 182 184 186 180 185 189 186 189 182 172 171 171 174 165 163 165 164 173 176 160 176 176 176 193 200 184 186 195 199 192 194 175 203 204 221 233 283 306 306 294 230 203 194 191 192 199 212 228 232 236 239 248 232 156 128 202 191 229 235 204 220 224 237 195 231 230
177 179 176 171 174 176 178 172 169 170 176 175 172 171 178 179 180 184 187 186 183 187 183 188 190 189 184 175 166 167 177 183 192 185 196 177 178 149 151 148 166 167 179 185 131 123 103 87 74 54 67 49 38 36 20 22 9 325 292 248 221 205 200 198 221 233 242 240 259 260 254 158 204 213 198 209 226 224 180 197 209 227 191 172 227
173 169 168 168 175 179 178 176 178 173 171 177 183 183 179 181 181 176 176 168 189 183 186 192 190 188 175 174 169 169 182 201 218 194 182 176 165 159 164 181 170 176 175 143 95 70 72 69 69 59 59 90 45 4 349 344 316 342 309 277 217 178 175 181 217 228 224 231 244 241 242 211 227 201 213 222 231 216 182 195 220 203 217 177 227
170 174 175 177 176 176 177 177 175 173 175 174 165 140 112 143 162 164 167 158 172 175 172 185 183 171 169 188 169 168 187 208 205 171 175 175 180 174 175 161 169 162 170 157 128 104 100 123 107 137 126 122 192 252 262 261 272 289 277 233 194 189 202 212 227 238 226 228 240 244 250 238 249 222 227 234 244 209 196 194 214 200 192 224 233
179 178 177 185 183 178 173 174 177 174 174 171 167 158 137 99 91 154 156 144 143 155 164 171 169 170 158 178 238 178 178 161 149 161 161 173 178 186 177 173 170 161 153 120 85 128 127 146 163 135 158 159 197 224 226 228 247 247 261 252 223 219 225 225 234 233 235 239 242 243 247 246 253 239 233 239 234 223 188 216 196 220 225 226 243
182 186 185 182 175 180 178 174 170 171 172 170 166 162 154 140 93 57 116 135 132 137 136 135 137 147 150 141 139 97 119 124 129 138 153 164 172 182 184 180 179 164 167 141 110 134 145 156 159 183 163 191 234 226 224 227 241 235 246 252 258 235 228 240 240 217 235 237 238 239 241 244 248 248 241 236 226 220 209 216 215 222 238 240 244
184 179 178 174 175 175 172 173 174 172 170 166 167 166 165 161 147 130 70 84 105 118 125 129 129 122 120 130 136 144 152 143 142 139 139 141 139 151 168 173 175 171 161 139 131 151 151 151 165 175 172 209 236 224 243 232 237 246 230 235 250 248 228 244 238 216 224 230 233 241 241 244 243 247 241 233 222 236 223 225 225 228 230 242 254
183 178 178 175 171 173 174 172 171 173 169 170 167 168 168 164 159 150 141 125 89 74 86 116 127 124 127 135 141 142 145 147 143 141 140 153 154 152 144 156 157 164 152 160 148 160 156 155 171 181 200 207 228 234 251 255 246 241 250 243 247 254 255 233 197 230 230 236 235 240 240 239 236 237 247 236 229 232 236 236 226 226 238 237 246
166 166 165 167 175 175 173 172 171 167 167 168 166 167 162 156 152 160 163 155 150 147 145 128 118 125 133 139 140 140 141 141 142 145 148 150 160 153 122 99 103 61 72 113 150 153 155 167 170 187 179 209 231 217 237 247 248 246 242 251 256 256 256 223 222 227 228 231 231 235 234 234 237 235 236 242 241 239 240 237 235 231 239 246 249
164 163 166 169 172 176 175 173 169 168 167 162 155 147 142 147 154 158 142 135 138 138 134 139 130 112 117 122 130 130 129 127 129 130 139 147 148 116 105 135 113 121 109 108 122 143 138 160 162 200 193 223 227 236 234 239 246 244 250 247 259 255 251 242 236 231 233 226 232 233 230 229 228 231 237 243 238 241 247 243 242 240 241 246 247
162 163 167 172 171 163 158 150 150 149 140 137 136 139 144 145 145 144 146 146 144 140 137 136 118 100 74 58 96 107 105 105 104 107 109 112 109 97 125 148 144 137 124 147 123 114 109 220 150 210 235 224 246 236 242 247 255 257 260 253 250 256 251 247 243 239 235 233 233 228 228 233 228 226 225 239 247 243 244 246 246 249 246 247 251
162 164 165 158 152 152 149 152 148 139 139 139 140 143 145 148 150 149 148 148 147 146 146 152 144 142 139 136 61 88 92 81 72 57 51 51 50 63 86 108 120 129 150 143 116 124 140 301 57 243 299 291 289 293 288 284 282 278 272 267 261 254 265 265 261 255 251 247 243 236 232 236 228 228 227 236 244 246 247 246 245 252 256 252 246
153 155 152 152 153 153 151 147 147 146 146 146 150 149 150 148 146 146 146 143 141 140 139 134 134 128 131 124 97 89 83 70 80 96 84 82 83 94 96 88 88 84 89 94 83 96 117 82 27 59 360 360 358 351 348 332 324 313 306 302 295 291 288 281 278 272 265 257 252 246 237 240 233 227 227 233 245 249 249 247 246 247 253 255 248
148 150 154 150 144 147 148 147 145 146 149 147 151 149 144 149 150 147 142 140 142 142 143 139 134 129 134 103 113 102 109 123 126 124 106 91 81 68 79 81 77 84 82 68 66 63 61 48 47 48 38 31 28 22 11 3 355 339 332 320 317 310 303 301 295 292 283 269 262 255 248 247 245 241 234 237 244 250 251 250 251 248 250 254 259
146 147 151 153 146 142 138 143 148 148 147 145 146 147 151 147 143 140 138 138 138 137 135 131 128 140 134 119 115 116 123 132 124 106 99 97 88 82 75 77 83 76 74 78 75 74 78 72 55 62 46 44 34 23 13 5 353 352 344 337 329 319 314 308 303 299 295 291 283 277 268 260 252 246 250 247 250 251 247 251 251 252 250 252 256
140 145 145 144 144 141 141 143 142 140 142 144 150 151 148 145 141 140 141 142 140 138 129 122 125 128 111 109 109 110 109 113 108 105 99 96 94 90 91 84 82 95 97 100 100 89 88 85 78 76 67 33 37 16 21 17 10 10 353 348 337 332 327 324 325 321 316 305 300 291 284 268 258 249 256 262 254 251 258 255 253 250 250 251 250
136 139 138 138 140 145 144 140 135 136 138 137 134 124 126 130 132 132 130 130 131 132 128 125 122 105 99 105 107 104 105 108 108 111 112 112 107 96 89 95 101 104 103 110 114 116 114 109 87 74 77 58 60 60 52 33 22 17 1 2 344 336 331 324 320 315 319 315 312 309 301 291 284 278 273 266 262 263 257 254 251 251 248 246 248
132 131 136 133 127 114 115 126 129 124 121 117 114 117 119 115 115 120 126 126 127 124 123 123 120 111 107 103 104 105 109 113 116 120 121 113 105 100 107 112 106 93 84 81 77 93 94 92 86 71 69 62 58 51 53 37 46 42 8 360 343 337 328 328 330 336 334 331 322 320 313 306 296 286 276 266 263 258 257 253 255 252 246 247 247
131 133 133 128 125 125 123 117 119 122 122 120 120 119 119 122 124 124 123 123 120 116 112 114 112 115 117 117 113 114 118 122 121 116 110 107 107 114 120 113 109 105 96 81 80 82 80 84 86 79 57 30 37 45 36 17 21 27 5 12 348 329 326 327 329 333 337 332 328 323 317 315 307 301 290 282 265 257 259 252 247 245 246 243 241
132 130 131 130 127 123 122 122 123 126 129 130 129 124 119 115 115 117 116 115 116 119 118 112 113 114 119 120 121 118 120 111 107 106 103 101 107 110 119 116 109 103 95 89 78 77 77 87 83 80 69 47 25 13 354 2 351 344 336 329 307 290 294 302 314 326 321 320 313 314 310 308 304 303 303 297 285 270 267 263 259 251 245 243 245
118 119 123 127 127 125 122 125 126 127 124 122 119 121 121 120 118 115 113 115 117 116 116 120 117 114 114 115 106 108 108 97 89 90 99 104 102 105 101 98 92 84 79 81 83 79 74 62 71 73 68 29 35 10 346 336 335 330 323 322 326 314 305 299 299 291 286 284 294 304 302 304 299 301 297 296 289 283 274 264 248 243 242 246 247
114 112 113 118 120 122 124 121 118 117 116 118 117 116 117 119 118 118 119 116 109 107 103 90 97 110 105 93 91 88 82 85 90 98 98 93 99 100 98 94 93 98 87 67 59 61 60 57 46 38 26 360 6 338 333 328 341 325 328 317 311 297 292 292 290 284 275 286 290 297 296 292 291 292 297 298 295 293 287 279 271 259 253 247 250
121 122 121 119 119 122 127 127 127 126 126 122 118 114 114 114 116 111 103 100 103 106 116 115 112 99 93 102 97 95 98 97 95 99 94 102 102 101 101 99 98 96 88 57 21 32 2 3 347 338 318 318 350 22 357 354 333 323 314 298 296 302 307 315 322 323 336 329 314 299 292 291 290 291 289 288 286 288 286 286 282 273 260 255 252
109 113 115 115 111 107 98 100 104 106 105 111 117 117 111 100 94 92 102 106 101 97 90 100 98 99 110 112 108 118 116 119 123 122 127 117 113 111 105 96 88 85 91 77 330 342 336 335 343 353 3 13 3 359 342 332 314 310 287 280 303 319 325 328 330 325 316 292 296 288 294 291 293 288 288 286 288 287 284 282 279 276 266 261 256
88 90 92 97 105 108 112 112 102 107 109 103 98 102 96 98 93 101 102 99 99 105 101 88 99 98 86 95 113 116 119 121 134 135 135 128 129 113 108 92 83 56 347 357 344 337 334 347 348 338 331 333 344 333 323 310 305 287 296 310 320 324 322 316 303 305 316 323 310 301 289 291 294 295 288 281 275 274 274 277 275 273 270 264 259